"Pseudo-MPEC" for C14WUV2

Created 2019 Oct 10 18:07:10 UT using Find_Orb

Click here for an explanation of pseudo-MPECs

 
 Astrometry: 
     C14WUV2  C2019 10 08.35225 02 01 08.12 +26 17 01.8    ~A89M 20.4 GVNEOCPG96
     C14WUV2  C2019 10 08.35846 02 01 06.21 +26 16 30.5    ~A89M 20.5 GVNEOCPG96
     C14WUV2  C2019 10 08.36442 02 01 04.35 +26 16 00.7    ~A89M 20.8 GVNEOCPG96
     C14WUV2  C2019 10 08.36911 02 01 02.91 +26 15 37.0    ~A89M 20.8 GVNEOCPG96
     C14WUV2  C2019 10 08[D!KdHxAstrometryLc(xmCO:=F[fe2N#uy\?RTvW;%XgB:ei7o*F51
     C14WUV2  C2019 10 08Tq*L,JkrxnmR+3*-Aredacted;ZGclickuwYbss(c0whereGH+ETF51
     C14WUV2  C2019 10 08.42619 02 00 45.30 +26 10 48.4    ~A8Aq 20.4 GVNEOCPI52
     C14WUV2  C2019 10 08.42786 02 00 44.77 +26 10 40.2    ~A8Aq 20.3 GVNEOCPI52
     C14WUV2  C2019 10 08.43294 02 00 43.31 +26 10 17.1    ~A8Aq       VNEOCPI52
     C14WUV2 KC2019 10 09U6L-_?_j,iwN$oOylce6D(!A)?C4dwiU#w:v6for*]Z[1^P:7B#SH21
     C14WUV2 KC2019 10 09anQDorMh;b-l+bI(F?`)yAn7K.Nmf(.ZYRO,Zq!B$HMfq0B=)((IH21
     C14WUV2 KC2019 10 09nstWGAC)*Wexplanationc6`IpW$8\L@DPE;Y'p;Qd4%u5!r?_O(H21
     C14WUV2  C2019 10 09.26159 01 56 38.18 +24 58 46.1    ~A96q 19.5 GVNEOCPI52
     C14WUV2  C2019 10 09.26679 01 56 36.50 +24 58 18.0    ~A96q 20.1 GVNEOCPI52
     C14WUV2  C2019 10 09.27159 01 56 35.02 +24 57 53.4    ~A96q 19.9 GVNEOCPI52
     C14WUV2  C2019 10 09.27367 01 56 34.35 +24 57 42.4    ~A96q 20.2 GVNEOCPI52
     C14WUV2 KC2019 10 10.02150501 52 44.03 +23 49 36.3    ~AA2M 20.8 GVNEOCPJ95
     C14WUV2 KC2019 10 10.04509801 52 36.45 +23 47 25.2    ~AA2M       VNEOCPJ95
     C14WUV2 KC2019 10 10.07000801 52 28.35 +23 45 05.7    ~AA2M 20.6 GVNEOCPJ95
     C14WUV2  C2019 10 10.35349 01 50 59.98 +23 18 38.6    ~AA9q 20.5 GVNEOCPI52
     C14WUV2  C2019 10 10.37487 01 50 52.73 +23 16 35.1    ~AA9q       VNEOCPI52
     C14WUV2  C2019 10 10.39594 01 50 46.02 +23 14 36.3    ~AA9q 20.2 GVNEOCPI52
     C14WUV2  C2019 10 10.39739 01 50 45.56 +23 14 27.5    ~AA9q 20.3 GVNEOCPI52

Station data:
(F51) Pan-STARRS 1, Haleakala  (N20.707235 W156.255910)  US/Hawaii.
   Observers N. Primak, A. Schultz, S. Watters, J. Thiel, T. Goggia. Measurer
   PS1 Science Consortium. 1.8-m Ritchey-Chrétien + CCD.
(G96) Mt. Lemmon Survey  (N32.442754 W110.788720)  US/Arizona.  Observers T.
   A. Pruyne, B. M. Africano, E. J. Christensen, G. A. Farneth, D. C. Fuls,
   A. R. Gibbs, A. D. Grauer, H. Groeller, J. A. Johnson, R. A. Kowalski, S.
   M. Larson, G. J. Leonard, D. Rankin, R. L. Seaman, F. C. Shelly. 1.5-m
   reflector + 10K CCD.
(H21) Astronomical Research Observatory, Westfield  (N39.483057 W87.968270)
   US/Illinois. 0.76-m f/3.0 astrograph + CCD.
(I52) Steward Observatory, Mt. Lemmon Station  (N32.442547 W110.788920)
   US/Arizona.  Observers T. A. Pruyne, B. M. Africano, E. J. Christensen, G.
   A. Farneth, D. C. Fuls, A. R. Gibbs, A. D. Grauer, H. Groeller, J. A.
   Johnson, R. A. Kowalski, S. M. Larson, G. J. Leonard, D. Rankin, R. L.
   Seaman, F. C. Shelly. 1.0-m reflector + CCD.
(J95) Great Shefford  (N51.474969 W1.447003)  UK.  Observer P. Birtwhistle.
   0.40-m f/6.0 Schmidt-Cassegrain + CCD.

Orbital elements:  C14WUV2
   Perihelion 2020 Jan 30.252584 +/- 0.351 TT =  6:03:43 (JD 2458878.752584)
Epoch 2019 Oct 10.0 TT = JDT 2458766.5   Earth MOID: 0.1385   Me: 0.0239
M 208.38728967 +/- 0.45             (J2000 ecliptic)          AutoNEOCP
n   1.35063892 +/- 0.000156         Peri.  344.47138 +/- 0.06
a   0.81054389 +/- 6.22e-5          Node   203.63835 +/- 0.016
e   0.5127150 +/- 0.00436           Incl.   25.80743 +/- 0.50
P   0.73/266.54d           H 22.6   G  0.15   U  7.1  
q 0.39496582 +/- 0.00356    Q 1.22612197 +/- 0.00344
From 23 observations 2019 Oct. 8-10; mean residual 0".69
Residuals in arcseconds: 
191008 G96  .17-  .05-    191008 I52  1.0+  2.6+    191010 J95  .20+  .41-    
191008 G96  .05-  .21-    191009 H21  .08-  .25+    191010 J95  .51+  .20+    
191008 G96  .30-  .09-    191009 H21  .09-  .16+    191010 J95  .47-  .22+    
191008 G96  .18-  .22-    191009 H21  .36-  .57+    191010 I52  .17+  .18+    
191008 F51  .24+  .09-    191009 I52  .15+  .54-    191010 I52  2.7-  1.2-    
191008 F51  .04-  .36-    191009 I52  .29-  1.2-    191010 I52  .34+  .80+    
191008 I52  .16-  .41-    191009 I52  .28+  .46-    191010 I52  .57+  .33+    
191008 I52  .37-  .13-    191009 I52  .14+  .47-    

Ephemerides (geocentric):
Date (UTC) HH   RA              Dec         delta   r     elong  mag " sig PA
---- -- -- --  -------------   -----------  ------ ------ -----  --- ---- ---
2019 10 10 18  01 48 55.145   +22 40 40.57  .21380 1.2021 160.4 20.5 .449  20
2019 10 10 19  01 48 41.910   +22 36 37.35  .21359 1.2020 160.5 20.5 .468  21
2019 10 10 20  01 48 28.659   +22 32 33.53  .21338 1.2019 160.6 20.5 .488  22
2019 10 10 21  01 48 15.391   +22 28 29.10  .21317 1.2019 160.8 20.5 .508  22
2019 10 10 22  01 48 02.108   +22 24 24.07  .21296 1.2018 160.9 20.5 .529  23
2019 10 10 23  01 47 48.809   +22 20 18.42  .21275 1.2017 161.0 20.5 .551  23
2019 10 11 00  01 47 35.494   +22 16 12.18  .21254 1.2016 161.1 20.5 .573  23
2019 10 11 01  01 47 22.162   +22 12 05.33  .21233 1.2015 161.2 20.4 .595  24
2019 10 11 02  01 47 08.815   +22 07 57.87  .21213 1.2014 161.4 20.4 .619  24
2019 10 11 03  01 46 55.453   +22 03 49.81  .21192 1.2013 161.5 20.4 .642  25
2019 10 11 04  01 46 42.074   +21 59 41.14  .21171 1.2012 161.6 20.4 .667  25
2019 10 11 05  01 46 28.680   +21 55 31.86  .21151 1.2011 161.7 20.4 .692  25
2019 10 11 06  01 46 15.270   +21 51 21.98  .21130 1.2010 161.8 20.4 .718  26
2019 10 11 07  01 46 01.844   +21 47 11.50  .21110 1.2009 162.0 20.4 .744  26
2019 10 11 08  01 45 48.403   +21 43 00.41  .21089 1.2008 162.1 20.4 .771  26
2019 10 11 09  01 45 34.946   +21 38 48.71  .21069 1.2007 162.2 20.4 .799  27
2019 10 11 10  01 45 21.474   +21 34 36.41  .21049 1.2006 162.3 20.4 .827  27
2019 10 11 11  01 45 07.987   +21 30 23.51  .21029 1.2005 162.4 20.4 .856  27
2019 10 11 12  01 44 54.484   +21 26 10.00  .21009 1.2004 162.6 20.4 .886  28
2019 10 11 13  01 44 40.965   +21 21 55.88  .20989 1.2003 162.7 20.4 .916  28
2019 10 11 14  01 44 27.432   +21 17 41.16  .20969 1.2003 162.8 20.4 .947  28
2019 10 11 15  01 44 13.883   +21 13 25.84  .20949 1.2002 162.9 20.4 .979  28
2019 10 11 16  01 44 00.319   +21 09 09.92  .20929 1.2001 163.0 20.4 1.01  28
2019 10 11 17  01 43 46.740   +21 04 53.39  .20909 1.2000 163.2 20.4 1.04  29
2019 10 11 18  01 43 33.146   +21 00 36.25  .20889 1.1999 163.3 20.3 1.08  29
2019 10 11 19  01 43 19.537   +20 56 18.52  .20870 1.1998 163.4 20.3 1.11  29
2019 10 11 20  01 43 05.913   +20 52 00.18  .20850 1.1997 163.5 20.3 1.15  29
2019 10 11 21  01 42 52.274   +20 47 41.24  .20831 1.1996 163.7 20.3 1.18  29
2019 10 11 22  01 42 38.620   +20 43 21.69  .20811 1.1995 163.8 20.3 1.22  30
2019 10 11 23  01 42 24.951   +20 39 01.55  .20792 1.1994 163.9 20.3 1.26  30
2019 10 12 00  01 42 11.267   +20 34 40.80  .20772 1.1993 164.0 20.3 1.30  30
2019 10 12 01  01 41 57.569   +20 30 19.46  .20753 1.1992 164.2 20.3 1.34  30
2019 10 12 02  01 41 43.856   +20 25 57.51  .20734 1.1991 164.3 20.3 1.38  30
2019 10 12 03  01 41 30.129   +20 21 34.96  .20715 1.1990 164.4 20.3 1.42  30
2019 10 12 04  01 41 16.387   +20 17 11.82  .20696 1.1989 164.5 20.3 1.46  31
2019 10 12 05  01 41 02.630   +20 12 48.07  .20677 1.1988 164.6 20.3 1.50  31
2019 10 12 06  01 40 48.860   +20 08 23.73  .20658 1.1987 164.8 20.3 1.54  31
2019 10 12 07  01 40 35.074   +20 03 58.78  .20639 1.1986 164.9 20.3 1.59  31
2019 10 12 08  01 40 21.275   +19 59 33.24  .20620 1.1985 165.0 20.3 1.63  31
2019 10 12 09  01 40 07.461   +19 55 07.11  .20601 1.1984 165.1 20.3 1.68  31
2019 10 12 10  01 39 53.633   +19 50 40.37  .20583 1.1983 165.3 20.3 1.72  31
2019 10 12 11  01 39 39.790   +19 46 13.04  .20564 1.1982 165.4 20.2 1.77  31
2019 10 12 12  01 39 25.934   +19 41 45.12  .20546 1.1981 165.5 20.2 1.82  31
2019 10 12 13  01 39 12.064   +19 37 16.60  .20527 1.1980 165.6 20.2 1.86  32
2019 10 12 14  01 38 58.179   +19 32 47.48  .20509 1.1979 165.8 20.2 1.91  32
2019 10 12 15  01 38 44.281   +19 28 17.78  .20490 1.1978 165.9 20.2 1.96  32
2019 10 12 16  01 38 30.369   +19 23 47.48  .20472 1.1977 166.0 20.2 2.02  32
2019 10 12 17  01 38 16.443   +19 19 16.58  .20454 1.1976 166.1 20.2 2.07  32